Regional Weather Roundup
Issued by NWS Green Bay, WI

Home | Current Version | Previous Version | Graphics & Text | Print | Product List | Glossary Off
Versions: 1 2 3 4 5 6 7 8 9 10 11 12 13 14 15 16 17 18 19 20 21 22 23 24 25 26 27 28 29 30 31 32 33 34 35 36 37 38 39 40 41 42 43 44 45 46 47 48 49 50

000
ASUS43 KGRB 220111
RWRGRB

NORTH-CENTRAL AND NORTHEAST WISCONSIN REGIONAL WEATHER ROUNDUP
NATIONAL WEATHER SERVICE GREEN BAY WI
800 PM CDT MON MAY 21 2018

WIZ005-009-010>012-018-019-220200-
NORTH CENTRAL WISCONSIN

CITY           SKY/WX    TMP DP  RH WIND       PRES   REMARKS
IRONWOOD       FAIR      64  39  39 E3        30.02S
MANITOWISH WTR NOT AVBL
ARBOR VITAE    CLOUDY    59  50  71 S7        30.05F
EAGLE RIVER    CLOUDY    56  43  61 S5        30.05F
LAND O LAKES   MOCLDY    59  44  56 S7        30.07F
RHINELANDER    LGT RAIN  55  51  86 SE5       30.06F
PHILLIPS       CLOUDY    55  51  86 SE5       30.04F
ANTIGO         CLOUDY    51  51  97 E7        30.07S
TOMAHAWK       CLOUDY    53  50  89 CALM      30.06F
MERRILL        CLOUDY    53  53  97 E5        30.06S
$$

WIZ013-073-220200-
NORTHEAST WISCONSIN

CITY           SKY/WX    TMP DP  RH WIND       PRES   REMARKS
IRON MOUNTAIN  CLOUDY    58  46  64 S7        30.06F
MARINETTE      NOT AVBL
OCONTO         CLOUDY    51  48  91 E3        30.08S
$$

WIZ017-030-035>037-045-220200-
CENTRAL WISCONSIN

CITY           SKY/WX    TMP DP  RH WIND       PRES   REMARKS
MEDFORD        CLOUDY    52  51  95 E7        30.04S
WAUSAU         CLOUDY    53  52  96 E7        30.03F
MOSINEE        CLOUDY    52  50  93 E8        30.05F
MARSHFIELD     CLOUDY    53  52  96 E12       30.02F
WISC RAPIDS    LGT RAIN  54  53  97 E9        30.03F
STEVENS POINT  CLOUDY    51  51 100 E10       30.05S
WAUPACA        CLOUDY    55  53  93 E6        30.06S
SHAWANO        CLOUDY    54  49  83 E7        30.07S
CLINTONVILLE   CLOUDY    53  49  86 E7        30.06F
WAUTOMA        LGT RAIN  53  51  93 E10       30.04F
$$

WIZ038-039-048-051-220200-
FOX VALLEY

CITY           SKY/WX    TMP DP  RH WIND       PRES   REMARKS
NWS GREEN BAY  CLOUDY    52  48  86 E8        30.08S
APPLETON       CLOUDY    52  50  93 E7        30.04F
OSHKOSH        CLOUDY    53  50  89 E10       30.04F
FOND DU LAC    CLOUDY    52  49  89 E7        30.04F
$$

WIZ022-050-052-220200-
EAST CENTRAL WISCONSIN

CITY           SKY/WX    TMP DP  RH WIND       PRES   REMARKS
EPHRAIM        NOT AVBL
WASHINGTON ISL NOT AVBL
STURGEON BAY   LGT RAIN  50  47  89 E6        30.09S
MANITOWOC      CLOUDY    49  48  97 NE3       30.08S
SHEBOYGAN      CLOUDY    49  48  97 E9        30.06F FOG
$$

LMZ563-521-522-541>543-220200-
LAKESHORE

STATION/POSITION TIME  TEMP    WIND        PRES    VSBY  WAVE
                       AIR SEA DIR/SP/G                  HT/PER
                 (UTC) (F)     (DEG/KT/KT) (MB)    (MI)  (FT/S)
SHEBOYGAN LKSHOR 0100   46      20/  8/  9 1018.2F
KEWAUNEE LKSHORE 0048   47      60/  3/  5 1018.2S
NORTHPORT PIER   0040   46                 1019.0S
SISTER BAY LKSHO 0027   52        CALM       N/A
MENOMINEE LKSHOR 0048   53     100/  5/  6 1018.2F
$$



USA.gov is the U.S. government's official web portal to all federal, state and local government web resources and services.